Details From LGAV - Athens Intl Airport Elefterios Venizel
To LGMK - Mikonos
Flight Number -
Tags generated
Created
Modified
Stats Distance 73 nm / 136 km
Max Altitude 0 ft / 0 m
Waypoints 3
Social Downloads 0
Likes 0
Share VATSIM

Download

Looking for another format? Having issues loading an existing format? Contact us
Advertisement - Login to hide

Notes

Basic altitude profile: - Ascent Rate: 2500ft/min - Ascent Speed: 250kts - Cruise Altitude: 25000ft - Cruise Speed: 420kts - Descent Rate: 2000ft/min - Descent Speed: 240kts Options: - Use NATs: yes - Use PACOTS: yes - Use low airways: yes - Use high airways: yes

Route

LGAV MKN LGMK

ID Type Via Altitude (ft/m) Position (lat/lon) Dist (leg/tot) Name
O LGAV APT - 0 / 0 37.93636 / 23.94447 - / 0 nm Athens Intl Airport Elefterios Venizel
MKN VOR - 0 / 0 37.44027 / 25.34449 72 / 72 nm MIKONOS VOR-DME
O LGMK APT - 0 / 0 37.43539 / 25.34814 0 / 73 nm Mikonos

Altitude Profile

Advertisement - Login to hide

LGAV

Details ICAO LGAV (ATH)
Name Athens Eleftherios Venizelos
Region Greece
Timezone Europe/Athens (UTC+3.0)
Stats Elevation 308 ft / 94 m (AMSL)
Location 37.936700° 23.944500°
Runways 2
Magnetic Variation 4.566° E

METAR

LGAV 160820Z 36011KT 320V030 9999 SCT030 21/13 Q1021 NOSIG

Decode

TAF

TAF TAF LGAV 160500Z 1606/1706 01012KT 9999 FEW020 SCT070 BECMG 1609/1611 02015G25KT

Decode

Departure Runways

ID Width Length Bearing (true/mag) Surface Threshold Overrun Markings Lighting
03L 148 ft / 45 m 12,479 ft / 3,804 m 36.85° / 32.28° ASPHALT 984 ft / 300 m 397 ft / 121 m PREC-APP CENTERLINE EDGE THRESHOLD ALSF-II TDZ
03R 148 ft / 45 m 13,136 ft / 4,004 m 36.89° / 32.32° ASPHALT 984 ft / 300 m 387 ft / 118 m PREC-APP CENTERLINE EDGE THRESHOLD ALSF-II TDZ
21L 148 ft / 45 m 13,136 ft / 4,004 m 216.91° / 212.34° ASPHALT 984 ft / 300 m 400 ft / 122 m PREC-APP CENTERLINE EDGE THRESHOLD ALSF-II TDZ
21R 148 ft / 45 m 12,479 ft / 3,804 m 216.87° / 212.30° ASPHALT 984 ft / 300 m 394 ft / 120 m PREC-APP CENTERLINE EDGE THRESHOLD ALSF-II TDZ

LGMK

Details ICAO LGMK (JMK)
Name Mikonos
Region Greece
Timezone Europe/Athens (UTC+3.0)
Stats Elevation 404 ft / 123 m (AMSL)
Location 37.435400° 25.348100°
Runways 1
Magnetic Variation 4.682° E

METAR

LGMK 160820Z 35021KT 9999 SCT010 20/17 Q1019

Decode

TAF

Not found

Destination Runways

ID Width Length Bearing (true/mag) Surface Threshold Overrun Markings Lighting
16 98 ft / 30 m 6,423 ft / 1,958 m 160.63° / 155.94° ASPHALT 0 ft / 0 m 200 ft / 61 m APP EDGE THRESHOLD REIL-OMNI
34 98 ft / 30 m 6,423 ft / 1,958 m 340.63° / 335.95° ASPHALT 0 ft / 0 m 200 ft / 61 m APP EDGE THRESHOLD REIL-OMNI

Popular Alternatives